owner,sensor,date,latitude,longitude,vertical_datum,direction_of_sea_water_velocity,sea_water_speed,upward_sea_water_velocity,qcFlag 
TABS,ioos:station:wmo:42045:1,2009-07-01T00:00:00Z,26.2168,-96.4998,2.0,299.0159074,11.4009561,-99999.0,'11111222,11111222,99999999' 
TABS,ioos:station:wmo:42045:1,2009-07-01T00:30:00Z,26.2168,-96.4998,2.0,302.849947,14.74829143,-99999.0,'11111222,11111222,99999999' 
TABS,ioos:station:wmo:42045:1,2009-07-01T01:00:00Z,26.2168,-96.4998,2.0,307.2811769,17.84645903,-99999.0,'11111222,11111222,99999999' 
TABS,ioos:station:wmo:42045:1,2009-07-01T01:30:00Z,26.2168,-96.4998,2.0,307.0622371,19.09810724,-99999.0,'11111222,11111222,99999999' 
TABS,ioos:station:wmo:42045:1,2009-07-01T02:00:00Z,26.2168,-96.4998,2.0,318.9899305,29.16812815,-99999.0,'11111222,11111222,99999999' 
TABS,ioos:station:wmo:42045:1,2009-07-01T02:30:00Z,26.2168,-96.4998,2.0,321.9118938,33.19950753,-99999.0,'11111222,11111222,99999999' 
TABS,ioos:station:wmo:42045:1,2009-07-01T03:00:00Z,26.2168,-96.4998,2.0,332.5474756,36.65802641,-99999.0,'11111222,11111222,99999999' 
TABS,ioos:station:wmo:42045:1,2009-07-01T03:30:00Z,26.2168,-96.4998,2.0,341.0813437,37.81270289,-99999.0,'11111222,11111222,99999999' 
TABS,ioos:station:wmo:42045:1,2009-07-01T04:00:00Z,26.2168,-96.4998,2.0,346.6661337,41.36513145,-99999.0,'11111222,11111222,99999999' 
TABS,ioos:station:wmo:42045:1,2009-07-01T04:30:00Z,26.2168,-96.4998,2.0,357.5316601,45.04179837,-99999.0,'11111222,11111222,99999999' 
TABS,ioos:station:wmo:42045:1,2009-07-01T05:00:00Z,26.2168,-96.4998,2.0,359.4493078,46.80216341,-99999.0,'11111222,11144222,99999999' 
TABS,ioos:station:wmo:42045:1,2009-07-01T05:30:00Z,26.2168,-96.4998,2.0,2.682554649,50.21501867,-99999.0,'11111222,11111222,99999999' 
TABS,ioos:station:wmo:42045:1,2009-07-01T06:00:00Z,26.2168,-96.4998,2.0,359.6105281,49.99115622,-99999.0,'11111222,11144222,99999999' 
TABS,ioos:station:wmo:42045:1,2009-07-01T06:30:00Z,26.2168,-96.4998,2.0,359.5667082,47.5813619,-99999.0,'11111222,11144222,99999999' 
TABS,ioos:station:wmo:42045:1,2009-07-01T07:00:00Z,26.2168,-96.4998,2.0,3.447731154,48.55787578,-99999.0,'11111222,11111222,99999999' 
TABS,ioos:station:wmo:42045:1,2009-07-01T07:30:00Z,26.2168,-96.4998,2.0,12.3494435,51.57330026,-99999.0,'11111222,11111222,99999999' 
TABS,ioos:station:wmo:42045:1,2009-07-01T08:00:00Z,26.2168,-96.4998,2.0,11.55424286,48.32933788,-99999.0,'11111222,11111222,99999999' 
TABS,ioos:station:wmo:42045:1,2009-07-01T08:30:00Z,26.2168,-96.4998,2.0,15.51769467,46.53630948,-99999.0,'11111222,11111222,99999999' 
TABS,ioos:station:wmo:42045:1,2009-07-01T09:00:00Z,26.2168,-96.4998,2.0,18.38575285,47.71562532,-99999.0,'11111222,11111222,99999999' 
TABS,ioos:station:wmo:42045:1,2009-07-01T09:30:00Z,26.2168,-96.4998,2.0,19.99401305,45.56631212,-99999.0,'11111222,11111222,99999999' 
TABS,ioos:station:wmo:42045:1,2009-07-01T10:00:00Z,26.2168,-96.4998,2.0,21.54452428,45.53109816,-99999.0,'11111222,11111222,99999999' 
TABS,ioos:station:wmo:42045:1,2009-07-01T10:30:00Z,26.2168,-96.4998,2.0,25.48349306,43.11460193,-99999.0,'11111222,11111222,99999999' 
TABS,ioos:station:wmo:42045:1,2009-07-01T11:00:00Z,26.2168,-96.4998,2.0,36.81334165,42.45602077,-99999.0,'11111222,11111222,99999999' 
TABS,ioos:station:wmo:42045:1,2009-07-01T11:30:00Z,26.2168,-96.4998,2.0,36.85541373,47.06600153,-99999.0,'11111222,11111222,99999999' 
TABS,ioos:station:wmo:42045:1,2009-07-01T12:00:00Z,26.2168,-96.4998,2.0,45.26963921,42.08746132,-99999.0,'11111222,11111222,99999999' 
TABS,ioos:station:wmo:42045:1,2009-07-01T12:30:00Z,26.2168,-96.4998,2.0,39.76048333,38.94755063,-99999.0,'11111222,11111222,99999999' 
TABS,ioos:station:wmo:42045:1,2009-07-01T13:00:00Z,26.2168,-96.4998,2.0,51.56560218,40.50710185,-99999.0,'11111222,11111222,99999999' 
TABS,ioos:station:wmo:42045:1,2009-07-01T13:30:00Z,26.2168,-96.4998,2.0,52.60248044,38.00161181,-99999.0,'11111222,11111222,99999999' 
TABS,ioos:station:wmo:42045:1,2009-07-01T14:00:00Z,26.2168,-96.4998,2.0,53.54989418,35.76695961,-99999.0,'11111222,11111222,99999999' 
TABS,ioos:station:wmo:42045:1,2009-07-01T14:30:00Z,26.2168,-96.4998,2.0,63.95531327,37.92080432,-99999.0,'11111222,11111222,99999999' 
TABS,ioos:station:wmo:42045:1,2009-07-01T15:00:00Z,26.2168,-96.4998,2.0,63.53190315,39.66790264,-99999.0,'11111222,11111222,99999999' 
TABS,ioos:station:wmo:42045:1,2009-07-01T15:30:00Z,26.2168,-96.4998,2.0,64.24065755,39.4391937,-99999.0,'11111222,11111222,99999999' 
TABS,ioos:station:wmo:42045:1,2009-07-01T16:00:00Z,26.2168,-96.4998,2.0,66.42375867,42.02816318,-99999.0,'11111222,11111222,99999999' 
TABS,ioos:station:wmo:42045:1,2009-07-01T16:30:00Z,26.2168,-96.4998,2.0,62.45631564,31.68076072,-99999.0,'11111222,11111222,99999999' 
TABS,ioos:station:wmo:42045:1,2009-07-01T17:00:00Z,26.2168,-96.4998,2.0,62.8091042,33.56985553,-99999.0,'11111222,11111222,99999999' 
TABS,ioos:station:wmo:42045:1,2009-07-01T17:30:00Z,26.2168,-96.4998,2.0,62.18184468,33.53562434,-99999.0,'11111222,11111222,99999999' 
TABS,ioos:station:wmo:42045:1,2009-07-01T18:00:00Z,26.2168,-96.4998,2.0,60.478534,34.682856,-99999.0,'11111222,11111222,99999999' 
TABS,ioos:station:wmo:42045:1,2009-07-01T18:30:00Z,26.2168,-96.4998,2.0,54.83257055,29.68910406,-99999.0,'11111222,11111222,99999999' 
TABS,ioos:station:wmo:42045:1,2009-07-01T19:00:00Z,26.2168,-96.4998,2.0,46.79720689,26.38098747,-99999.0,'11111222,11111222,99999999' 
TABS,ioos:station:wmo:42045:1,2009-07-01T19:30:00Z,26.2168,-96.4998,2.0,45.00010523,24.32447327,-99999.0,'11111222,11111222,99999999' 
TABS,ioos:station:wmo:42045:1,2009-07-01T20:00:00Z,26.2168,-96.4998,2.0,55.9495952,28.21815728,-99999.0,'11111222,11111222,99999999' 
TABS,ioos:station:wmo:42045:1,2009-07-01T20:30:00Z,26.2168,-96.4998,2.0,58.54014731,25.94356375,-99999.0,'11111222,11111222,99999999' 
TABS,ioos:station:wmo:42045:1,2009-07-01T21:00:00Z,26.2168,-96.4998,2.0,58.80517876,22.1063475,-99999.0,'11111222,11111222,99999999' 
TABS,ioos:station:wmo:42045:1,2009-07-01T21:30:00Z,26.2168,-96.4998,2.0,65.52536712,18.51354639,-99999.0,'11111222,11111222,99999999' 
TABS,ioos:station:wmo:42045:1,2009-07-01T22:00:00Z,26.2168,-96.4998,2.0,68.34057922,13.49266467,-99999.0,'11111222,11111222,99999999' 
TABS,ioos:station:wmo:42045:1,2009-07-01T22:30:00Z,26.2168,-96.4998,2.0,58.20891872,8.788503854,-99999.0,'11133222,11111222,99999999' 
TABS,ioos:station:wmo:42045:1,2009-07-01T23:00:00Z,26.2168,-96.4998,2.0,106.1891684,1.614001239,-99999.0,'11133222,11111222,99999999' 
TABS,ioos:station:wmo:42045:1,2009-07-01T23:30:00Z,26.2168,-96.4998,2.0,228.6518986,0.999049548,-99999.0,'11133222,11111222,99999999' 
TABS,ioos:station:wmo:42045:1,2009-07-02T00:00:00Z,26.2168,-96.4998,2.0,300.3990775,2.608620325,-99999.0,'11133222,11111222,99999999' 
TABS,ioos:station:wmo:42045:1,2009-07-02T00:30:00Z,26.2168,-96.4998,2.0,327.9585624,5.013790981,-99999.0,'11133222,11111222,99999999' 
TABS,ioos:station:wmo:42045:1,2009-07-02T01:00:00Z,26.2168,-96.4998,2.0,309.5158481,10.87559194,-99999.0,'11111222,11111222,99999999' 
TABS,ioos:station:wmo:42045:1,2009-07-02T01:30:00Z,26.2168,-96.4998,2.0,323.9554903,12.08325287,-99999.0,'11111222,11111222,99999999' 
TABS,ioos:station:wmo:42045:1,2009-07-02T02:00:00Z,26.2168,-96.4998,2.0,328.4960174,14.90732035,-99999.0,'11111222,11111222,99999999' 
TABS,ioos:station:wmo:42045:1,2009-07-02T02:30:00Z,26.2168,-96.4998,2.0,326.5991932,24.1963303,-99999.0,'11111222,11111222,99999999' 
TABS,ioos:station:wmo:42045:1,2009-07-02T03:00:00Z,26.2168,-96.4998,2.0,335.4149985,25.50192542,-99999.0,'11111222,11111222,99999999' 
TABS,ioos:station:wmo:42045:1,2009-07-02T03:30:00Z,26.2168,-96.4998,2.0,337.0487026,34.41442285,-99999.0,'11111222,11111222,99999999' 
TABS,ioos:station:wmo:42045:1,2009-07-02T04:00:00Z,26.2168,-96.4998,2.0,341.0078048,33.80002367,-99999.0,'11111222,11111222,99999999' 
TABS,ioos:station:wmo:42045:1,2009-07-02T04:30:00Z,26.2168,-96.4998,2.0,343.2541101,37.44814682,-99999.0,'11111222,11111222,99999999' 
TABS,ioos:station:wmo:42045:1,2009-07-02T05:00:00Z,26.2168,-96.4998,2.0,348.2053139,41.24077836,-99999.0,'11111222,11111222,99999999' 
TABS,ioos:station:wmo:42045:1,2009-07-02T05:30:00Z,26.2168,-96.4998,2.0,353.2576396,44.97103512,-99999.0,'11111222,11111222,99999999' 
TABS,ioos:station:wmo:42045:1,2009-07-02T06:00:00Z,26.2168,-96.4998,2.0,357.8751431,48.00301345,-99999.0,'11111222,11111222,99999999' 
TABS,ioos:station:wmo:42045:1,2009-07-02T06:30:00Z,26.2168,-96.4998,2.0,358.6563492,46.90290076,-99999.0,'11111222,11111222,99999999' 
TABS,ioos:station:wmo:42045:1,2009-07-02T07:00:00Z,26.2168,-96.4998,2.0,358.1790229,50.34543078,-99999.0,'11111222,11111222,99999999' 
TABS,ioos:station:wmo:42045:1,2009-07-02T07:30:00Z,26.2168,-96.4998,2.0,358.9186377,49.79887248,-99999.0,'11111222,11111222,99999999' 
TABS,ioos:station:wmo:42045:1,2009-07-02T08:00:00Z,26.2168,-96.4998,2.0,8.985849291,52.56510725,-99999.0,'11111222,11111222,99999999' 
TABS,ioos:station:wmo:42045:1,2009-07-02T08:30:00Z,26.2168,-96.4998,2.0,14.35400927,51.63177704,-99999.0,'11111222,11111222,99999999' 
TABS,ioos:station:wmo:42045:1,2009-07-02T09:00:00Z,26.2168,-96.4998,2.0,17.85747116,54.26428015,-99999.0,'11111222,11111222,99999999' 
TABS,ioos:station:wmo:42045:1,2009-07-02T09:30:00Z,26.2168,-96.4998,2.0,16.37557935,50.33170174,-99999.0,'11111222,11111222,99999999' 
TABS,ioos:station:wmo:42045:1,2009-07-02T10:00:00Z,26.2168,-96.4998,2.0,23.16871831,52.61318181,-99999.0,'11111222,11111222,99999999' 
TABS,ioos:station:wmo:42045:1,2009-07-02T10:30:00Z,26.2168,-96.4998,2.0,27.03631649,54.93310295,-99999.0,'11111222,11111222,99999999' 
TABS,ioos:station:wmo:42045:1,2009-07-02T11:00:00Z,26.2168,-96.4998,2.0,29.28612296,54.35748523,-99999.0,'11111222,11111222,99999999' 
TABS,ioos:station:wmo:42045:1,2009-07-02T11:30:00Z,26.2168,-96.4998,2.0,30.18260572,54.08196187,-99999.0,'11111222,11111222,99999999' 
TABS,ioos:station:wmo:42045:1,2009-07-02T12:00:00Z,26.2168,-96.4998,2.0,27.20554369,58.42316065,-99999.0,'11111222,11111222,99999999' 
TABS,ioos:station:wmo:42045:1,2009-07-02T12:30:00Z,26.2168,-96.4998,2.0,26.21470875,62.14149177,-99999.0,'11111222,11111222,99999999' 
TABS,ioos:station:wmo:42045:1,2009-07-02T13:00:00Z,26.2168,-96.4998,2.0,26.32749422,61.44320467,-99999.0,'11111222,11111222,99999999' 
TABS,ioos:station:wmo:42045:1,2009-07-02T13:30:00Z,26.2168,-96.4998,2.0,27.41462721,62.74649074,-99999.0,'11111222,11111222,99999999' 
TABS,ioos:station:wmo:42045:1,2009-07-02T14:00:00Z,26.2168,-96.4998,2.0,27.1097421,70.11284191,-99999.0,'11111222,11111222,99999999' 
TABS,ioos:station:wmo:42045:1,2009-07-02T14:30:00Z,26.2168,-96.4998,2.0,27.91424889,67.24378633,-99999.0,'11111222,11111222,99999999' 
TABS,ioos:station:wmo:42045:1,2009-07-02T15:00:00Z,26.2168,-96.4998,2.0,31.16427131,63.74984392,-99999.0,'11111222,11111222,99999999' 
TABS,ioos:station:wmo:42045:1,2009-07-02T15:30:00Z,26.2168,-96.4998,2.0,36.34303032,65.01675015,-99999.0,'11111222,11111222,99999999' 
TABS,ioos:station:wmo:42045:1,2009-07-02T16:00:00Z,26.2168,-96.4998,2.0,34.18098619,69.61465507,-99999.0,'11111222,11111222,99999999' 
TABS,ioos:station:wmo:42045:1,2009-07-02T16:30:00Z,26.2168,-96.4998,2.0,37.41305994,67.10501397,-99999.0,'11111222,11111222,99999999' 
TABS,ioos:station:wmo:42045:1,2009-07-02T17:00:00Z,26.2168,-96.4998,2.0,40.70642123,64.50654928,-99999.0,'11111222,11111222,99999999' 
TABS,ioos:station:wmo:42045:1,2009-07-02T17:30:00Z,26.2168,-96.4998,2.0,35.93938442,65.01657635,-99999.0,'11111222,11111222,99999999' 
TABS,ioos:station:wmo:42045:1,2009-07-02T18:00:00Z,26.2168,-96.4998,2.0,35.72569405,62.39044318,-99999.0,'11111222,11111222,99999999' 
TABS,ioos:station:wmo:42045:1,2009-07-02T18:30:00Z,26.2168,-96.4998,2.0,42.15587712,65.6933642,-99999.0,'11111222,11111222,99999999' 
TABS,ioos:station:wmo:42045:1,2009-07-02T19:00:00Z,26.2168,-96.4998,2.0,43.81433622,65.60527418,-99999.0,'11111222,11111222,99999999' 
TABS,ioos:station:wmo:42045:1,2009-07-02T19:30:00Z,26.2168,-96.4998,2.0,47.74673816,62.56597318,-99999.0,'11111222,11111222,99999999' 
TABS,ioos:station:wmo:42045:1,2009-07-02T20:00:00Z,26.2168,-96.4998,2.0,44.22882625,61.46021884,-99999.0,'11111222,11111222,99999999' 
TABS,ioos:station:wmo:42045:1,2009-07-02T20:30:00Z,26.2168,-96.4998,2.0,49.11807817,62.42899647,-99999.0,'11111222,11111222,99999999' 
TABS,ioos:station:wmo:42045:1,2009-07-02T21:00:00Z,26.2168,-96.4998,2.0,50.69646703,56.70714946,-99999.0,'11111222,11111222,99999999' 
TABS,ioos:station:wmo:42045:1,2009-07-02T21:30:00Z,26.2168,-96.4998,2.0,62.05595872,45.15481923,-99999.0,'11111222,11111222,99999999' 
TABS,ioos:station:wmo:42045:1,2009-07-02T22:00:00Z,26.2168,-96.4998,2.0,58.08541164,46.19264552,-99999.0,'11111222,11111222,99999999' 
TABS,ioos:station:wmo:42045:1,2009-07-02T22:30:00Z,26.2168,-96.4998,2.0,60.85933211,43.28928851,-99999.0,'11111222,11111222,99999999' 
TABS,ioos:station:wmo:42045:1,2009-07-02T23:00:00Z,26.2168,-96.4998,2.0,58.79093988,36.84166391,-99999.0,'11111222,11111222,99999999' 
TABS,ioos:station:wmo:42045:1,2009-07-02T23:30:00Z,26.2168,-96.4998,2.0,57.56986764,34.31095452,-99999.0,'11111222,11111222,99999999' 
TABS,ioos:station:wmo:42045:1,2009-07-03T00:00:00Z,26.2168,-96.4998,2.0,52.94033762,28.97215905,-99999.0,'11111222,11111222,99999999' 
TABS,ioos:station:wmo:42045:1,2009-07-03T00:30:00Z,26.2168,-96.4998,2.0,58.79093988,22.42536064,-99999.0,'11111222,11111222,99999999' 
TABS,ioos:station:wmo:42045:1,2009-07-03T01:00:00Z,26.2168,-96.4998,2.0,61.98687235,18.7576571,-99999.0,'11111222,11111222,99999999' 
TABS,ioos:station:wmo:42045:1,2009-07-03T01:30:00Z,26.2168,-96.4998,2.0,43.54251529,11.11931653,-99999.0,'11111222,11111222,99999999' 
TABS,ioos:station:wmo:42045:1,2009-07-03T02:00:00Z,26.2168,-96.4998,2.0,34.11835163,12.24812231,-99999.0,'11111222,11111222,99999999' 
TABS,ioos:station:wmo:42045:1,2009-07-03T02:30:00Z,26.2168,-96.4998,2.0,22.49720245,9.330021436,-99999.0,'11133222,11111222,99999999' 
TABS,ioos:station:wmo:42045:1,2009-07-03T03:00:00Z,26.2168,-96.4998,2.0,14.66935653,10.97783221,-99999.0,'11111222,11111222,99999999' 
TABS,ioos:station:wmo:42045:1,2009-07-03T03:30:00Z,26.2168,-96.4998,2.0,352.8699286,13.45404772,-99999.0,'11111222,11111222,99999999' 
TABS,ioos:station:wmo:42045:1,2009-07-03T04:00:00Z,26.2168,-96.4998,2.0,343.0281581,20.31476803,-99999.0,'11111222,11111222,99999999' 
TABS,ioos:station:wmo:42045:1,2009-07-03T04:30:00Z,26.2168,-96.4998,2.0,329.7519045,20.46652144,-99999.0,'11111222,11111222,99999999' 
TABS,ioos:station:wmo:42045:1,2009-07-03T05:00:00Z,26.2168,-96.4998,2.0,335.2285567,35.01161236,-99999.0,'11111222,11111222,99999999' 
TABS,ioos:station:wmo:42045:1,2009-07-03T05:30:00Z,26.2168,-96.4998,2.0,334.3019793,36.06743129,-99999.0,'11111222,11111222,99999999' 
TABS,ioos:station:wmo:42045:1,2009-07-03T06:00:00Z,26.2168,-96.4998,2.0,329.5555296,40.516488,-99999.0,'11111222,11111222,99999999' 
TABS,ioos:station:wmo:42045:1,2009-07-03T06:30:00Z,26.2168,-96.4998,2.0,332.0862797,42.74310471,-99999.0,'11111222,11111222,99999999' 
TABS,ioos:station:wmo:42045:1,2009-07-03T07:00:00Z,26.2168,-96.4998,2.0,334.9586512,43.3995311,-99999.0,'11111222,11111222,99999999' 
TABS,ioos:station:wmo:42045:1,2009-07-03T07:30:00Z,26.2168,-96.4998,2.0,339.0835883,42.21172586,-99999.0,'11111222,11111222,99999999' 
TABS,ioos:station:wmo:42045:1,2009-07-03T08:00:00Z,26.2168,-96.4998,2.0,339.1391088,45.71692028,-99999.0,'11111222,11111222,99999999' 
TABS,ioos:station:wmo:42045:1,2009-07-03T08:30:00Z,26.2168,-96.4998,2.0,347.5634012,51.35509809,-99999.0,'11111222,11111222,99999999' 
TABS,ioos:station:wmo:42045:1,2009-07-03T09:00:00Z,26.2168,-96.4998,2.0,347.8496962,50.93095817,-99999.0,'11111222,11111222,99999999' 
TABS,ioos:station:wmo:42045:1,2009-07-03T09:30:00Z,26.2168,-96.4998,2.0,347.5060832,53.80418664,-99999.0,'11111222,11111222,99999999' 
TABS,ioos:station:wmo:42045:1,2009-07-03T10:00:00Z,26.2168,-96.4998,2.0,351.75213,50.81562949,-99999.0,'11111222,11111222,99999999' 
TABS,ioos:station:wmo:42045:1,2009-07-03T10:30:00Z,26.2168,-96.4998,2.0,354.3446283,52.86734531,-99999.0,'11111222,11111222,99999999' 
TABS,ioos:station:wmo:42045:1,2009-07-03T11:00:00Z,26.2168,-96.4998,2.0,355.9827359,51.52661545,-99999.0,'11111222,11111222,99999999' 
TABS,ioos:station:wmo:42045:1,2009-07-03T11:30:00Z,26.2168,-96.4998,2.0,356.9163335,51.67483333,-99999.0,'11111222,11111222,99999999' 
TABS,ioos:station:wmo:42045:1,2009-07-03T12:00:00Z,26.2168,-96.4998,2.0,357.7976174,52.81902403,-99999.0,'11111222,11111222,99999999' 
TABS,ioos:station:wmo:42045:1,2009-07-03T12:30:00Z,26.2168,-96.4998,2.0,2.123464294,58.84039769,-99999.0,'11111222,11111222,99999999' 
TABS,ioos:station:wmo:42045:1,2009-07-03T13:00:00Z,26.2168,-96.4998,2.0,1.383985729,60.45763145,-99999.0,'11111222,11111222,99999999' 
TABS,ioos:station:wmo:42045:1,2009-07-03T13:30:00Z,26.2168,-96.4998,2.0,6.272968669,55.37150982,-99999.0,'11111222,11111222,99999999' 
TABS,ioos:station:wmo:42045:1,2009-07-03T14:00:00Z,26.2168,-96.4998,2.0,8.712152391,52.22252866,-99999.0,'11111222,11111222,99999999' 
TABS,ioos:station:wmo:42045:1,2009-07-03T14:30:00Z,26.2168,-96.4998,2.0,1.438164845,56.18769438,-99999.0,'11111222,11111222,99999999' 
TABS,ioos:station:wmo:42045:1,2009-07-03T15:00:00Z,26.2168,-96.4998,2.0,7.884866946,51.17378724,-99999.0,'11111222,11111222,99999999' 
TABS,ioos:station:wmo:42045:1,2009-07-03T15:30:00Z,26.2168,-96.4998,2.0,12.27704922,50.32076013,-99999.0,'11111222,11111222,99999999' 
TABS,ioos:station:wmo:42045:1,2009-07-03T16:00:00Z,26.2168,-96.4998,2.0,3.752121819,49.05513836,-99999.0,'11111222,11111222,99999999' 
TABS,ioos:station:wmo:42045:1,2009-07-03T16:30:00Z,26.2168,-96.4998,2.0,0.970376076,45.47651922,-99999.0,'11111222,11111222,99999999' 
TABS,ioos:station:wmo:42045:1,2009-07-03T17:00:00Z,26.2168,-96.4998,2.0,8.392043991,52.00683224,-99999.0,'11111222,11111222,99999999' 
TABS,ioos:station:wmo:42045:1,2009-07-03T17:30:00Z,26.2168,-96.4998,2.0,8.468607332,48.62009564,-99999.0,'11111222,11111222,99999999' 
TABS,ioos:station:wmo:42045:1,2009-07-03T18:00:00Z,26.2168,-96.4998,2.0,6.819426846,42.53087584,-99999.0,'11111222,11111222,99999999' 
TABS,ioos:station:wmo:42045:1,2009-07-03T18:30:00Z,26.2168,-96.4998,2.0,8.058554717,47.43841692,-99999.0,'11111222,11111222,99999999' 
TABS,ioos:station:wmo:42045:1,2009-07-03T19:00:00Z,26.2168,-96.4998,2.0,9.004968527,40.76238462,-99999.0,'11111222,11111222,99999999' 
TABS,ioos:station:wmo:42045:1,2009-07-03T19:30:00Z,26.2168,-96.4998,2.0,4.566987823,38.432014,-99999.0,'11111222,11111222,99999999' 
TABS,ioos:station:wmo:42045:1,2009-07-03T20:00:00Z,26.2168,-96.4998,2.0,2.690071407,39.63366877,-99999.0,'11111222,11111222,99999999' 
TABS,ioos:station:wmo:42045:1,2009-07-03T20:30:00Z,26.2168,-96.4998,2.0,9.637127316,35.60241003,-99999.0,'11111222,11111222,99999999' 
TABS,ioos:station:wmo:42045:1,2009-07-03T21:00:00Z,26.2168,-96.4998,2.0,6.711091625,31.57634716,-99999.0,'11111222,11111222,99999999' 
TABS,ioos:station:wmo:42045:1,2009-07-03T21:30:00Z,26.2168,-96.4998,2.0,15.90618426,33.9706491,-99999.0,'11111222,11111222,99999999' 
TABS,ioos:station:wmo:42045:1,2009-07-03T22:00:00Z,26.2168,-96.4998,2.0,29.17708824,33.66095958,-99999.0,'11111222,11111222,99999999' 
TABS,ioos:station:wmo:42045:1,2009-07-03T22:30:00Z,26.2168,-96.4998,2.0,26.3631641,27.90182969,-99999.0,'11111222,11111222,99999999' 
TABS,ioos:station:wmo:42045:1,2009-07-03T23:00:00Z,26.2168,-96.4998,2.0,45.5763602,23.20134694,-99999.0,'11111222,11111222,99999999' 
TABS,ioos:station:wmo:42045:1,2009-07-03T23:30:00Z,26.2168,-96.4998,2.0,41.79001543,18.56239478,-99999.0,'11111222,11111222,99999999' 
TABS,ioos:station:wmo:42045:1,2009-07-04T00:00:00Z,26.2168,-96.4998,2.0,14.8635273,11.92914498,-99999.0,'11111222,11111222,99999999' 
TABS,ioos:station:wmo:42045:1,2009-07-04T00:30:00Z,26.2168,-96.4998,2.0,22.31252113,11.03631279,-99999.0,'11111222,11111222,99999999' 
TABS,ioos:station:wmo:42045:1,2009-07-04T01:00:00Z,26.2168,-96.4998,2.0,349.325771,12.20113519,-99999.0,'11111222,11111222,99999999' 
TABS,ioos:station:wmo:42045:1,2009-07-04T01:30:00Z,26.2168,-96.4998,2.0,336.2843189,12.50613449,-99999.0,'11111222,11111222,99999999' 
TABS,ioos:station:wmo:42045:1,2009-07-04T02:00:00Z,26.2168,-96.4998,2.0,327.3619544,13.14583584,-99999.0,'11111222,11111222,99999999' 
TABS,ioos:station:wmo:42045:1,2009-07-04T02:30:00Z,26.2168,-96.4998,2.0,327.5290941,18.12338269,-99999.0,'11111222,11111222,99999999' 
TABS,ioos:station:wmo:42045:1,2009-07-04T03:00:00Z,26.2168,-96.4998,2.0,333.3361893,23.2864467,-99999.0,'11111222,11111222,99999999' 
TABS,ioos:station:wmo:42045:1,2009-07-04T03:30:00Z,26.2168,-96.4998,2.0,319.0114324,23.25005376,-99999.0,'11111222,11111222,99999999' 
TABS,ioos:station:wmo:42045:1,2009-07-04T04:00:00Z,26.2168,-96.4998,2.0,322.8099895,19.67030757,-99999.0,'11111222,11111222,99999999' 
TABS,ioos:station:wmo:42045:1,2009-07-04T04:30:00Z,26.2168,-96.4998,2.0,334.5798917,23.50576525,-99999.0,'11111222,11111222,99999999' 
TABS,ioos:station:wmo:42045:1,2009-07-04T05:00:00Z,26.2168,-96.4998,2.0,320.7841785,27.50505772,-99999.0,'11111222,11111222,99999999' 
TABS,ioos:station:wmo:42045:1,2009-07-04T05:30:00Z,26.2168,-96.4998,2.0,321.6245415,24.88659479,-99999.0,'11111222,11111222,99999999' 
TABS,ioos:station:wmo:42045:1,2009-07-04T06:00:00Z,26.2168,-96.4998,2.0,322.3500431,19.67782508,-99999.0,'11111222,11111222,99999999' 
TABS,ioos:station:wmo:42045:1,2009-07-04T06:30:00Z,26.2168,-96.4998,2.0,324.6054974,20.97695164,-99999.0,'11111222,11111222,99999999' 
TABS,ioos:station:wmo:42045:1,2009-07-04T07:00:00Z,26.2168,-96.4998,2.0,327.897721,20.62334842,-99999.0,'11111222,11111222,99999999' 
TABS,ioos:station:wmo:42045:1,2009-07-04T07:30:00Z,26.2168,-96.4998,2.0,346.8039454,22.99727375,-99999.0,'11111222,11111222,99999999' 
TABS,ioos:station:wmo:42045:1,2009-07-04T08:00:00Z,26.2168,-96.4998,2.0,345.4288755,23.37175218,-99999.0,'11111222,11111222,99999999' 
TABS,ioos:station:wmo:42045:1,2009-07-04T08:30:00Z,26.2168,-96.4998,2.0,344.2495881,27.48188676,-99999.0,'11111222,11111222,99999999' 
TABS,ioos:station:wmo:42045:1,2009-07-04T09:00:00Z,26.2168,-96.4998,2.0,336.354161,29.42010367,-99999.0,'11111222,11111222,99999999' 
TABS,ioos:station:wmo:42045:1,2009-07-04T09:30:00Z,26.2168,-96.4998,2.0,341.5931791,26.00025,-99999.0,'11111222,11111222,99999999' 
TABS,ioos:station:wmo:42045:1,2009-07-04T10:00:00Z,26.2168,-96.4998,2.0,346.8913459,24.4265368,-99999.0,'11111222,11111222,99999999' 
TABS,ioos:station:wmo:42045:1,2009-07-04T10:30:00Z,26.2168,-96.4998,2.0,358.1349584,28.26497656,-99999.0,'11111222,11111222,99999999' 
TABS,ioos:station:wmo:42045:1,2009-07-04T11:00:00Z,26.2168,-96.4998,2.0,353.950245,30.74121826,-99999.0,'11111222,11111222,99999999' 
TABS,ioos:station:wmo:42045:1,2009-07-04T11:30:00Z,26.2168,-96.4998,2.0,0.815203118,26.01263155,-99999.0,'11111222,11111222,99999999' 
TABS,ioos:station:wmo:42045:1,2009-07-04T12:00:00Z,26.2168,-96.4998,2.0,355.7256362,25.49090818,-99999.0,'11111222,11111222,99999999' 
TABS,ioos:station:wmo:42045:1,2009-07-04T12:30:00Z,26.2168,-96.4998,2.0,2.914805975,25.76332665,-99999.0,'11111222,11111222,99999999' 
TABS,ioos:station:wmo:42045:1,2009-07-04T13:00:00Z,26.2168,-96.4998,2.0,13.99401915,26.21810825,-99999.0,'11111222,11111222,99999999' 
TABS,ioos:station:wmo:42045:1,2009-07-04T13:30:00Z,26.2168,-96.4998,2.0,18.27360173,25.80112594,-99999.0,'11111222,11111222,99999999' 
TABS,ioos:station:wmo:42045:1,2009-07-04T14:00:00Z,26.2168,-96.4998,2.0,17.51906905,21.56000232,-99999.0,'11111222,11111222,99999999' 
TABS,ioos:station:wmo:42045:1,2009-07-04T14:30:00Z,26.2168,-96.4998,2.0,9.702630582,14.12199703,-99999.0,'11111222,11111222,99999999' 
TABS,ioos:station:wmo:42045:1,2009-07-04T15:00:00Z,26.2168,-96.4998,2.0,25.15189968,19.76390903,-99999.0,'11111222,11111222,99999999' 
TABS,ioos:station:wmo:42045:1,2009-07-04T15:30:00Z,26.2168,-96.4998,2.0,44.6038761,20.45001711,-99999.0,'11111222,11111222,99999999' 
TABS,ioos:station:wmo:42045:1,2009-07-04T16:00:00Z,26.2168,-96.4998,2.0,45.10771699,26.35391622,-99999.0,'11111222,11111222,99999999' 